| time (UTC) | temp F | wind direction | speed MPH | gust MPH | rain 1hr in | rain 24hr in | rain mn in | humidity % | barometer mb |
| 20260504044534 | 49 | 29 | 10.0 | 17.0 | 0.00 | 0.00 | 0.00 | 46 | 1013.7 |
| 20260504043038 | 49 | 32 | 13.0 | 21.0 | 0.00 | 0.00 | 0.00 | 46 | 1013.5 |
| 20260504041524 | 50 | 32 | 18.0 | 26.0 | 0.00 | 0.00 | 0.00 | 45 | 1013.2 |
| 20260504034524 | 53 | 24 | 10.0 | 16.0 | 0.00 | 0.00 | 0.00 | 45 | 1012.2 |
| 20260504033023 | 53 | 34 | 3.0 | 6.0 | 0.00 | 0.00 | 0.00 | 44 | 1011.7 |
| 20260504031524 | 53 | 26 | 4.0 | 10.0 | 0.00 | 0.00 | 0.00 | 45 | 1011.4 |
| 20260504024540 | 55 | 22 | 8.0 | 15.0 | 0.00 | 0.00 | 0.00 | 43 | 1011.0 |
| 20260504023039 | 56 | 28 | 12.0 | 19.0 | 0.00 | 0.00 | 0.00 | 42 | 1010.8 |
| 20260504021539 | 57 | 12 | 11.0 | 20.0 | 0.00 | 0.00 | 0.00 | 41 | 1010.8 |
| 20260504014529 | 61 | 23 | 15.0 | 22.0 | 0.00 | 0.00 | 0.00 | 35 | 1010.5 |
| 20260504013023 | 63 | 18 | 12.0 | 15.0 | 0.00 | 0.00 | 0.00 | 31 | 1010.5 |
| 20260504011522 | 64 | 355 | 11.0 | 22.0 | 0.00 | 0.00 | 0.00 | 28 | 1010.4 |
| 20260504004521 | 67 | 313 | 10.0 | 19.0 | 0.00 | 0.00 | 0.00 | 23 | 1010.3 |
| 20260504003019 | 67 | 306 | 11.0 | 19.0 | 0.00 | 0.00 | 0.00 | 24 | 1010.4 |
| 20260504001519 | 68 | 321 | 14.0 | 21.0 | 0.00 | 0.00 | 0.00 | 23 | 1010.6 |
| 20260503234517 | 68 | 299 | 15.0 | 22.0 | 0.00 | 0.00 | 0.00 | 22 | 1010.8 |
| 20260503233011 | 67 | 327 | 16.0 | 24.0 | 0.00 | 0.00 | 0.00 | 22 | 1010.9 |
| 20260503231511 | 68 | 296 | 16.0 | 24.0 | 0.00 | 0.00 | 0.00 | 22 | 1011.0 |
| 20260503224518 | 68 | 298 | 12.0 | 23.0 | 0.00 | 0.00 | 0.00 | 24 | 1011.1 |
| 20260503223017 | 68 | 302 | 16.0 | 28.0 | 0.00 | 0.00 | 0.00 | 22 | 1011.2 |
| 20260503221516 | 68 | 297 | 15.0 | 26.0 | 0.00 | 0.00 | 0.00 | 23 | 1011.2 |
| 20260503214535 | 68 | 264 | 15.0 | 22.0 | 0.00 | 0.00 | 0.00 | 25 | 1011.4 |
| 20260503213017 | 67 | 282 | 16.0 | 24.0 | 0.00 | 0.00 | 0.00 | 23 | 1011.6 |
| 20260503211516 | 67 | 298 | 18.0 | 29.0 | 0.00 | 0.00 | 0.00 | 23 | 1011.8 |
| 20260503204511 | 68 | 284 | 17.0 | 25.0 | 0.00 | 0.00 | 0.00 | 26 | 1012.0 |
| 20260503203009 | 66 | 257 | 12.0 | 23.0 | 0.00 | 0.00 | 0.00 | 25 | 1012.3 |
| 20260503201507 | 66 | 288 | 13.0 | 27.0 | 0.00 | 0.00 | 0.00 | 25 | 1012.3 |
| 20260503194549 | 64 | 333 | 11.0 | 22.0 | 0.00 | 0.00 | 0.00 | 26 | 1012.7 |
| 20260503193056 | 64 | 315 | 12.0 | 19.0 | 0.00 | 0.00 | 0.00 | 28 | 1012.9 |
| 20260503191545 | 65 | 277 | 11.0 | 21.0 | 0.00 | 0.00 | 0.00 | 25 | 1013.3 |
| 20260503184507 | 65 | 308 | 13.0 | 19.0 | 0.00 | 0.00 | 0.00 | 26 | 1013.5 |
| 20260503183007 | 63 | 293 | 8.0 | 18.0 | 0.00 | 0.00 | 0.00 | 29 | 1013.6 |
| 20260503181504 | 62 | 313 | 9.0 | 15.0 | 0.00 | 0.00 | 0.00 | 31 | 1014.0 |
| 20260503174557 | 62 | 323 | 7.0 | 19.0 | 0.00 | 0.00 | 0.00 | 35 | 1014.1 |
| 20260503173059 | 61 | 260 | 10.0 | 15.0 | 0.00 | 0.00 | 0.00 | 34 | 1014.3 |
| 20260503171548 | 60 | 283 | 11.0 | 17.0 | 0.00 | 0.00 | 0.00 | 35 | 1014.4 |
| 20260503081505 | 48 | 239 | 4.0 | 10.0 | 0.00 | 0.00 | 0.00 | 64 | 1016.0 |
| 20260503071602 | 48 | 232 | 4.0 | 8.0 | 0.00 | 0.00 | 0.00 | 63 | 1016.3 |
| 20260503054604 | 49 | 254 | 3.0 | 5.0 | 0.00 | 0.00 | 0.00 | 63 | 1016.7 |
| 20260503053059 | 48 | 254 | 3.0 | 5.0 | 0.00 | 0.00 | 0.00 | 64 | 1016.8 |